Skip Page Navigation
NASA JPL Caltech
NASA Logo - Jet Propulsion Laboratory + View the NASA Portal
+ Near-Earth Object (NEO) Program
Search JPL
JPL Home Earth Solar System Stars & Galaxies Technology
JPL Solar System Dynamics
BODIES ORBITS EPHEMERIDES TOOLS PHYSICAL DATA DISCOVERY FAQ SITE MAP
JPL Small-Body Database Browser
Search: [ help ]  
(2003 UW29)
Classification: Apollo [NEO, PHA]          SPK-ID: 3164418
Ephemeris | Orbit Diagram | Orbital Elements | Physical Parameters | Close-Approach Data ]

[ hide orbit diagram ]
Orbit Diagram
Note: Make sure you have Java enabled on your browser to see the applet. This applet is provided as a 3D orbit visualization tool. The applet was implemented using 2-body methods, and hence should not be used for determining accurate long-term trajectories (over several years or decades) or planetary encounter circumstances. For accurate long-term ephemerides, please instead use our Horizons system.
Orbit Viewer

Additional Notes: the orbits shown in the applet are color coded. The planets are white lines, and the asteroid/comet is a blue line. The bright white line indicates the portion of the orbit that is above the ecliptic plane, and the darker portion is below the ecliptic plane. Likewise for the asteroid/comet orbit, the light blue indicates the portion above the ecliptic plane, and the dark blue the portion below the ecliptic plane.

Orbit Viewer applet originally written and kindly provided by Osamu Ajiki (AstroArts), and further modified by Ron Baalke (JPL).


Orbital Elements at Epoch 2456400.5 (2013-Apr-18.0) TDB
Reference: JPL 16 (heliocentric ecliptic J2000)
 Element Value Uncertainty (1-sigma)   Units 
e .8385713265083906 1.1467e-07  
a 1.169624781747293 2.7497e-08 AU
q .1888109770003786 1.3398e-07 AU
i 3.759823830594864 1.8055e-05 deg
node 196.661959492107 0.00019924 deg
peri 55.06630211553514 0.00019483 deg
M 223.2489272759551 0.00012099 deg
tp 2456576.007835441384
(2013-Oct-10.50783544)
0.00016113 JED
period 462.027971702987
1.26
1.6293e-05
4.461e-08
d
yr
n .7791736043016562 2.7476e-08 deg/d
Q 2.150438586494207 5.0555e-08 AU
  Orbit Determination Parameters
   # obs. used (total)      62  
   data-arc span      1848 days (5.06 yr)  
   first obs. used      2000-12-29  
   last obs. used      2006-01-20  
   planetary ephem.      DE405  
   SB-pert. ephem.      SB405-CPV-2  
   condition code      1  
   fit RMS      .625  
   data source      ORB  
   producer      Otto Matic  
   solution date      2011-Sep-14 19:52:51  

Additional Information
 Earth MOID = .0179009 AU 
 T_jup = 4.964 
[ show covariance matrix ]

Ephemeris | Orbit Diagram | Orbital Elements | Physical Parameters | Close-Approach Data ]

Physical Parameter Table
Parameter Symbol Value Units Sigma Reference Notes
absolute magnitude H 20.674 mag .54635 16 autocmod 2.5a

[ show close-approach data ]
Ephemeris | Orbit Diagram | Orbital Elements | Physical Parameters | Close-Approach Data ]
ABOUT SSD CREDITS/AWARDS PRIVACY/COPYRIGHT GLOSSARY LINKS
FirstGov 2013-May-19 20:07 UT
(server date/time)  
NASA Home Page
Site Manager:   Donald K. Yeomans
Webmaster  Alan B. Chamberlin